Regional Weather Roundup
Issued by NWS Sioux Falls, SD

Home | Current Version | Previous Version | Graphics & Text | Print | Product List | Glossary On
Versions: 1 2 3 4 5 6 7 8 9 10 11 12 13 14 15 16 17 18 19 20 21 22 23 24 25 26 27 28 29 30 31 32 33 34 35 36 37 38 39 40 41 42 43 44 45 46 47 48 49 50
000
ASUS43 KFSD 231202
RWRFSD

WEATHER ROUNDUP FOR SE SOUTH DAKOTA/SW MINNESOTA/NW IOWA
NATIONAL WEATHER SERVICE SIOUX FALLS SD
700 AM CDT SAT SEP 23 2017

NOTE: "FAIR" INDICATES FEW OR NO CLOUDS BELOW 12,000 FEET WITH NO
SIGNIFICANT WEATHER AND OR OBSTRUCTIONS TO VISIBILITY.


SDZ038>040-050-052>070-231300-
SOUTHEAST SOUTH DAKOTA

CITY           SKY/WX    TMP DP  RH WIND       PRES   REMARKS
BROOKINGS      CLOUDY    57  55  93 E5        29.93F
CHAMBERLAIN    CLOUDY    53  53  99 CALM      30.00S
6HR MIN TEMP:  52; 6HR MAX TEMP:  55; 6HR PCP:  0.05;

HURON          HVY RAIN  53  53 100 N10       29.95F FOG
6HR MIN TEMP:  53; 6HR MAX TEMP:  55; 6HR PCP:  0.06;

MITCHELL       CLOUDY    56  54  93 NW9       29.98R
6HR MIN TEMP:  55; 6HR MAX TEMP:  59;

SIOUX FALLS    CLOUDY    62  61  96 NE6       29.94R
6HR MIN TEMP:  60; 6HR MAX TEMP:  68;

WINNER         CLOUDY    51  49  92 N9        30.00R
YANKTON        CLOUDY    56  52  86 NW8       29.96R
$$

MNZ071-072-080-081-089-090-097-098-231300-
SOUTHWEST MINNESOTA

CITY           SKY/WX    TMP DP  RH WIND       PRES   REMARKS
FAIRMONT       CLEAR     70  67  90 S10       29.94R
JACKSON        PTCLDY    68  64  88 CALM      29.95R
MARSHALL       CLOUDY    58  55  90 N12       29.96R
6HR MIN TEMP:  58; 6HR MAX TEMP:  79;

MONTEVIDEO     CLOUDY    57  57 100 N9        29.95F
PIPESTONE      CLOUDY    64  61  88 N6        29.95R
REDWOOD FALLS  CLOUDY    66  62  87 NW10      29.93R
TRACY          CLOUDY    60  57  91 NW14      29.96R
WORTHINGTON    MOCLDY    72  67  84 SW10G18   29.94R
$$

IAZ001>003-012>014-020>022-031-032-NEZ013-014-SDZ071-231300-
NORTHWEST IOWA

CITY           SKY/WX    TMP DP  RH WIND       PRES   REMARKS
CHEROKEE       PTCLDY    69  68  98 S5        29.94R
DENISON        CLEAR     70  68  94 S7        29.98R
ESTHERVILLE    PTCLDY    67  67 100 S12       29.94R
LE MARS        CLEAR     64  61  88 CALM      29.94R
ORANGE CITY    CLEAR     66  64  94 W6        29.94R
SHELDON        PTCLDY    70  68  94 SW5       29.92R
SIOUX CITY     PTCLDY    66  66 100 NW9       29.94R
6HR MIN TEMP:  66; 6HR MAX TEMP:  76;

SPENCER        PTCLDY    69  67  93 S9        29.94R
6HR MIN TEMP:  69; 6HR MAX TEMP:  76;

STORM LAKE     PTCLDY    68  66  94 S8        29.96R
$$

ABBREVIATIONS USED IN REMARKS
   TC - TEMPERATURE IN CELSIUS
  WCI - WIND CHILL INDEX
   HX - HEAT INDEX
  VSB - VISIBILITY





USA.gov is the U.S. government's official web portal to all federal, state and local government web resources and services.